�������r�C�����j�^�v���󋵏��
Date,Time,5�C6���@���p�r�C��,����,����(m/s)
2024/03/31,00:00,3.6,��,3.2
2024/03/31,00:10,3.9,��쓌,4.1
2024/03/31,00:20,3.9,��쓌,3.6
2024/03/31,00:30,3.8,��,3.5
2024/03/31,00:40,3.5,��,4.4
2024/03/31,00:50,3.7,��,3.6
2024/03/31,01:00,3.7,��쐼,2.3
2024/03/31,01:10,3.7,��쐼,2.2
2024/03/31,01:20,3.8,��,3.5
2024/03/31,01:30,3.8,��,3.7
2024/03/31,01:40,3.6,��,3.5
2024/03/31,01:50,3.7,��,2.0
2024/03/31,02:00,3.6,��쐼,1.7
2024/03/31,02:10,3.7,��쐼,2.3
2024/03/31,02:20,3.5,�쐼,2.0
2024/03/31,02:30,3.7,��,2.3
2024/03/31,02:40,3.8,�k��,4.1
2024/03/31,02:50,3.6,�k��,3.0
2024/03/31,03:00,3.7,�k��,3.3
2024/03/31,03:10,3.7,�k��,3.0
2024/03/31,03:20,3.6,�k��,3.4
2024/03/31,03:30,3.8,���k��,3.2
2024/03/31,03:40,3.7,��,2.2
2024/03/31,03:50,3.7,��,2.5
2024/03/31,04:00,3.8,��,2.5
2024/03/31,04:10,3.9,���쐼,3.0
2024/03/31,04:20,3.7,���쐼,2.8
2024/03/31,04:30,3.6,���쐼,3.0
2024/03/31,04:40,3.8,���쐼,3.5
2024/03/31,04:50,3.7,��,3.1
2024/03/31,05:00,3.7,��,4.0
2024/03/31,05:10,3.7,��,5.3
2024/03/31,05:20,3.6,��,6.4
2024/03/31,05:30,3.5,��,7.8
2024/03/31,05:40,3.7,���k��,10.2
2024/03/31,05:50,3.8,��,9.3
2024/03/31,06:00,3.9,��,8.0
2024/03/31,06:10,3.7,��,7.0
2024/03/31,06:20,3.8,��,6.0
2024/03/31,06:30,3.7,��,4.0
2024/03/31,06:40,3.9,���k��,5.1
2024/03/31,06:50,3.7,��,5.5
2024/03/31,07:00,3.7,���k��,4.5
2024/03/31,07:10,3.6,�k�k��,3.7
2024/03/31,07:20,3.7,�k��,3.2
2024/03/31,07:30,3.6,�k��,4.9
2024/03/31,07:40,3.7,��,5.5
2024/03/31,07:50,3.7,���k��,6.3
2024/03/31,08:00,3.8,��,7.6
2024/03/31,08:10,3.7,��,6.9
2024/03/31,08:20,3.7,��,8.4
2024/03/31,08:30,3.8,��,8.2
2024/03/31,08:40,3.6,��,10.0
2024/03/31,08:50,3.7,��,8.2
2024/03/31,09:00,3.6,���k��,9.5
2024/03/31,09:10,3.8,��,9.8
2024/03/31,09:20,3.8,���k��,9.1
2024/03/31,09:30,3.8,���k��,11.3
2024/03/31,09:40,3.5,���k��,11.0
2024/03/31,09:50,3.8,���k��,9.4
2024/03/31,10:00,3.7,���k��,9.6
2024/03/31,10:10,3.7,���k��,8.2
2024/03/31,10:20,3.9,���k��,8.5
2024/03/31,10:30,3.7,���k��,10.3
2024/03/31,10:40,3.7,��,8.4
2024/03/31,10:50,3.8,��,8.9
2024/03/31,11:00,3.8,��,8.4
2024/03/31,11:10,3.7,���k��,9.9
2024/03/31,11:20,3.7,��,8.0
2024/03/31,11:30,3.5,���k��,9.3
2024/03/31,11:40,3.7,��,11.3
2024/03/31,11:50,3.6,��,10.7
2024/03/31,12:00,3.7,���k��,9.9
2024/03/31,12:10,3.8,���k��,11.7
2024/03/31,12:20,3.7,��,11.8
2024/03/31,12:30,3.6,��,10.2
2024/03/31,12:40,3.7,���k��,11.0
2024/03/31,12:50,3.7,��,8.4
2024/03/31,13:00,3.7,��,7.2
2024/03/31,13:10,3.6,���k��,9.1
2024/03/31,13:20,3.6,��,9.7
2024/03/31,13:30,3.7,���k��,10.2
2024/03/31,13:40,3.7,��,6.6
2024/03/31,13:50,3.7,��,4.6
2024/03/31,14:00,3.7,��,9.3
2024/03/31,14:10,3.8,��,9.5
2024/03/31,14:20,3.5,��,8.9
2024/03/31,14:30,3.7,��,6.7
2024/03/31,14:40,3.6,��,8.5
2024/03/31,14:50,3.8,��,7.7
2024/03/31,15:00,3.6,��,7.2
2024/03/31,15:10,3.6,��,7.5
2024/03/31,15:20,3.7,��,8.7
2024/03/31,15:30,3.6,���k��,8.3
2024/03/31,15:40,3.7,���k��,7.7
2024/03/31,15:50,3.8,���k��,5.8
2024/03/31,16:00,3.7,���k��,5.0
2024/03/31,16:10,3.7,�k��,4.5
2024/03/31,16:20,3.9,�k��,2.5
2024/03/31,16:30,3.8,�k�k��,3.1
2024/03/31,16:40,3.7,���k��,1.9
2024/03/31,16:50,3.7,��,2.5
2024/03/31,17:00,3.7,��,2.6
2024/03/31,17:10,3.7,��,1.4
2024/03/31,17:20,3.8,��쓌,0.6
2024/03/31,17:30,3.7,-,CALM
2024/03/31,17:40,3.7,�k��,2.0
2024/03/31,17:50,3.7,��,1.4
2024/03/31,18:00,3.6,��쓌,0.8
2024/03/31,18:10,3.6,���쐼,0.6
2024/03/31,18:20,3.8,�k��,2.5
2024/03/31,18:30,3.7,��,3.6
2024/03/31,18:40,3.7,���k��,4.0
2024/03/31,18:50,3.7,��,2.6
2024/03/31,19:00,3.6,��,2.6
2024/03/31,19:10,3.6,���k��,2.0
2024/03/31,19:20,3.7,��,0.8
2024/03/31,19:30,3.8,�쓌,2.2
2024/03/31,19:40,3.8,��쓌,1.4
2024/03/31,19:50,3.5,�쓌,2.2
2024/03/31,20:00,3.7,�쓌,2.6
2024/03/31,20:10,3.7,�쓌,2.0
2024/03/31,20:20,3.7,���쓌,1.7
2024/03/31,20:30,3.8,��,2.8
2024/03/31,20:40,3.8,��,1.4
2024/03/31,20:50,3.6,��,1.1
2024/03/31,21:00,3.7,�k��,2.5
2024/03/31,21:10,3.7,�k�k��,4.8
2024/03/31,21:20,3.7,�k�k��,4.5
2024/03/31,21:30,3.6,�k,4.0
2024/03/31,21:40,3.7,�k�k��,5.2
2024/03/31,21:50,3.6,�k�k��,4.5
2024/03/31,22:00,3.7,�k�k��,4.2
2024/03/31,22:10,3.7,�k,3.9
2024/03/31,22:20,3.8,�k,3.8
2024/03/31,22:30,3.6,�k,3.4
2024/03/31,22:40,3.7,�k,3.1
2024/03/31,22:50,3.6,�k,3.3
2024/03/31,23:00,3.8,�k,2.9
2024/03/31,23:10,3.8,�k,3.4
2024/03/31,23:20,3.6,�k,2.9
2024/03/31,23:30,3.6,�k�k��,3.7
2024/03/31,23:40,3.7,�k,3.4
2024/03/31,23:50,3.6,�k,4.7
